Chippewa, MI

8:19 AM EST on December 09, 2019 (GMT -0500)
Chippewa County International

Weather History for KCIU - November, 2019

Change the Weather History Date:

Friday, November 22, 2019

  Actual Average Record
Temperature  
Mean Temperature 26 °F -  
Max Temperature 30 °F 38 °F 66 °F (2012)
Min Temperature 23 °F 24 °F -8 °F (2018)
Degree Days  
Heating Degree Days 38    
Moisture  
Dew Point 24 °F    
Average Humidity 89    
Maximum Humidity 100    
Minimum Humidity 67    
Precipitation  
Precipitation 0.01 in - - ()
Sea Level Pressure  
Sea Level Pressure 29.88 in    
Wind  
Wind Speed 16 mph ()    
Max Wind Speed 24 mph    
Max Gust Speed 33 mph    
Visibility 5.9 miles    
Events Fog , Snow    
Averages and records for this station are not official NWS values.
T = Trace of Precipitation, MM = Missing Value Source: Averaged Metar Reports

Daily Weather History Graph

Daily Weather History Graph

Search for Another Location

Airport or City:

Astronomy

Nov. 22, 2019 Rise Set
Actual Time 7:48 AM EST 4:59 PM EST
Civil Twilight 7:15 AM EST 5:32 PM EST
Nautical Twilight 6:38 AM EST 6:09 PM EST
Astronomical Twilight 6:02 AM EST 6:45 PM EST
Moon 2:32 AM EST (11/22) 3:17 PM EST (11/22)
Length of Visible Light 10h 17m
Length of Day
9h 10m
Waning Crescent, 20% of the Moon is Illuminated
Nov 22
Waning Crescent
Nov 26
New
Dec 4
First Quarter
Dec 12
Full
Dec 18
Last Quarter

Hourly Weather History & Observations

Time (EST) Temp. Windchill Dew Point Humidity Pressure Visibility Wind Dir Wind Speed Gust Speed Precip Events Conditions
12:14 AM 30.2 °F 17.4 °F 28.4 °F 93% 29.69 in 0.8 mi NNW 20.7 mph 27.6 mph 0.00 in Snow Light Snow
12:33 AM 30.2 °F 18.1 °F 28.4 °F 93% 29.71 in 1.2 mi NW 18.4 mph 25.3 mph 0.00 in Snow Light Snow
12:54 AM 28.4 °F 15.8 °F 28.4 °F 100% 29.73 in 1.0 mi NW 18.4 mph 26.5 mph 0.00 in Snow Light Snow
12:56 AM 28.9 °F 15.8 °F 28.0 °F 96% 29.75 in 1.0 mi NW 20.7 mph 26.5 mph 0.00 in Snow Light Snow
1:03 AM 28.4 °F 15.8 °F 28.4 °F 100% 29.73 in 1.5 mi NW 18.4 mph 28.8 mph 0.00 in Snow Light Snow
1:17 AM 28.4 °F 15.1 °F 28.4 °F 100% 29.75 in 3.0 mi NW 20.7 mph 27.6 mph 0.00 in Snow Light Snow
1:27 AM 28.4 °F 15.8 °F 26.6 °F 93% 29.75 in 2.5 mi NW 18.4 mph 27.6 mph 0.00 in Snow Light Snow
1:30 AM 28.4 °F 15.1 °F 26.6 °F 93% 29.75 in 1.0 mi NW 20.7 mph 27.6 mph 0.00 in Snow Light Snow
1:33 AM 28.4 °F 15.1 °F 26.6 °F 93% 29.75 in 0.5 mi NW 20.7 mph 27.6 mph 0.00 in Fog , Snow Snow
1:50 AM 28.4 °F 15.8 °F 26.6 °F 93% 29.77 in 3.0 mi NW 18.4 mph 33.4 mph 0.00 in Snow Light Snow
1:51 AM 28.9 °F 16.9 °F 27.0 °F 92% 29.79 in 4.0 mi NW 17.3 mph 33.4 mph 0.00 in Snow Light Snow
2:00 AM 28.4 °F 16.2 °F 26.6 °F 93% 29.78 in 4.0 mi NW 17.3 mph 25.3 mph 0.00 in Snow Light Snow
2:12 AM 28.4 °F 15.8 °F 26.6 °F 93% 29.78 in 9.0 mi NW 18.4 mph 26.5 mph 0.00 in Snow Light Snow
2:19 AM 28.4 °F 17.5 °F 26.6 °F 93% 29.79 in 4.0 mi NNW 13.8 mph 24.2 mph 0.00 in Snow Light Snow
2:25 AM 28.4 °F 16.2 °F 26.6 °F 93% 29.79 in 1.8 mi NW 17.3 mph 23.0 mph 0.00 in Snow Light Snow
2:37 AM 28.4 °F 17.5 °F 26.6 °F 93% 29.80 in 4.0 mi NW 13.8 mph 21.9 mph 0.00 in Snow Light Snow
2:44 AM 28.4 °F 15.4 °F 26.6 °F 93% 29.80 in 9.0 mi NW 19.6 mph 24.2 mph 0.00 in Snow Light Snow
2:52 AM 28.4 °F 15.4 °F 26.6 °F 93% 29.81 in 9.0 mi NNW 19.6 mph 27.6 mph 0.00 in Snow Light Snow
2:56 AM 28.0 °F 14.9 °F 25.0 °F 88% 29.84 in 9.0 mi NNW 19.6 mph 27.6 mph 0.00 in Snow Light Snow
3:12 AM 28.4 °F 16.6 °F 24.8 °F 86% 29.82 in 2.5 mi NNW 16.1 mph 24.2 mph 0.00 in Snow Light Snow
3:33 AM 26.6 °F 13.8 °F 26.6 °F 100% 29.83 in 1.5 mi NW 17.3 mph 21.9 mph 0.00 in Snow Light Snow
3:56 AM 27.0 °F 13.9 °F 25.0 °F 92% 29.88 in 4.0 mi NW 18.4 mph 24.2 mph 0.00 in Snow Light Snow
4:32 AM 26.6 °F 13.1 °F 24.8 °F 93% 29.87 in 1.8 mi NW 19.6 mph 26.5 mph 0.00 in Snow Light Snow
4:45 AM 26.6 °F 14.3 °F 24.8 °F 93% 29.88 in 1.0 mi NW 16.1 mph - 0.00 in Snow Light Snow
4:56 AM 27.0 °F 13.9 °F 25.0 °F 92% 29.91 in 2.0 mi NW 18.4 mph 25.3 mph 0.00 in Snow Light Snow
5:03 AM 26.6 °F 12.7 °F 24.8 °F 93% 29.88 in 8.0 mi NW 20.7 mph 28.8 mph 0.01 in Snow Light Snow
5:19 AM 26.6 °F 13.8 °F 24.8 °F 93% 29.89 in 1.8 mi NW 17.3 mph 26.5 mph 0.01 in Snow Light Snow
5:29 AM 26.6 °F 12.7 °F 24.8 °F 93% 29.89 in 3.0 mi NW 20.7 mph 27.6 mph 0.01 in Snow Light Snow
5:56 AM 26.1 °F 11.0 °F 23.0 °F 88% 29.93 in 9.0 mi NW 24.2 mph 27.6 mph 0.01 in Snow Light Snow
6:56 AM 25.0 °F 10.6 °F 19.9 °F 81% 29.96 in 9.0 mi NNW 20.7 mph 27.6 mph 0.00 in Snow Light Snow
7:21 AM 24.8 °F 10.3 °F 21.2 °F 86% 29.94 in 9.0 mi NW 20.7 mph - 0.00 in Snow Light Snow
8:56 AM 24.1 °F 10.6 °F 19.0 °F 81% 30.02 in 9.0 mi NNW 17.3 mph - 0.00 in Snow Light Snow
9:56 AM 25.0 °F 12.6 °F 19.0 °F 78% 30.04 in 9.0 mi NW 15.0 mph - 0.00 in   Overcast
10:56 AM 26.1 °F 14.5 °F 19.0 °F 75% 30.06 in 10.0 mi NW 13.8 mph - N/A   Mostly Cloudy
11:56 AM 27.0 °F 16.1 °F 19.9 °F 75% 30.07 in 10.0 mi WNW 12.7 mph - N/A   Overcast
12:56 PM 25.0 °F 12.6 °F 18.0 °F 75% 30.07 in 10.0 mi WNW 15.0 mph - N/A   Overcast
1:56 PM 28.9 °F 18.6 °F 19.0 °F 67% 30.06 in 10.0 mi West 12.7 mph 20.7 mph N/A   Overcast
2:56 PM 27.0 °F 18.0 °F 19.0 °F 72% 30.05 in 10.0 mi WNW 9.2 mph - N/A   Mostly Cloudy
3:56 PM 26.1 °F 19.4 °F 21.0 °F 81% 30.05 in 10.0 mi West 5.8 mph - N/A   Overcast
5:56 PM 26.1 °F 16.8 °F 21.9 °F 84% 30.06 in 10.0 mi WSW 9.2 mph - N/A   Overcast
6:56 PM 25.0 °F 19.3 °F 21.0 °F 85% 30.05 in 10.0 mi WSW 4.6 mph - N/A   Overcast
7:56 PM 23.0 °F - 19.9 °F 88% 30.03 in 10.0 mi Calm Calm - N/A   Overcast
8:56 PM 25.0 °F - 21.0 °F 85% 30.00 in 10.0 mi Calm Calm - N/A   Overcast
9:56 PM 23.0 °F 17.0 °F 21.0 °F 92% 29.98 in 10.0 mi South 4.6 mph - N/A   Mostly Cloudy
10:56 PM 26.1 °F 20.5 °F 24.1 °F 92% 29.94 in 10.0 mi SSW 4.6 mph - N/A   Mostly Cloudy
11:56 PM 25.0 °F 19.3 °F 24.1 °F 96% 29.92 in 10.0 mi SW 4.6 mph - N/A   Clear